Regional Weather Roundup
Issued by NWS Albany, NY

Home | Current Version | Previous Version | Text Only | Print | Product List | Glossary On
Versions: 1 2 3 4 5 6 7 8 9 10 11 12 13 14 15 16 17 18 19 20 21 22 23 24 25 26 27 28
000
ASUS41 KALY 010610
RWRALY

NEW YORK STATE HOURLY WEATHER ROUNDUP
NATIONAL WEATHER SERVICE ALBANY NY
200 AM EDT SAT NOV 01 2014

NOTE: "FAIR" INDICATES FEW OR NO CLOUDS BELOW 12,000 FEET WITH NO
SIGNIFICANT WEATHER AND/OR NO OBSTRUCTIONS TO VISIBILITY.

NYZ032-033-038>043-046>054-057>066-NYZ062>081-010700-
EAST


CITY           SKY/WX    TMP DP  RH WIND       PRES   REMARKS
ALBANY         CLOUDY    44  33  65 N7        29.97S
GLENS FALLS    CLOUDY    43  31  62 NE5       29.98F
POUGHKEEPSIE   LGT RAIN  46  40  79 N8        29.91S
MONTGOMERY     CLOUDY    46  38  73 NE9       29.90S
WHITE PLAINS   CLOUDY    45  40  82 NE8       29.85F
ISLIP          CLOUDY    49  43  80 NE14      29.82F
NEW YORK CITY  CLOUDY    48  42  80 NE18      29.85F
CENTRAL PARK   CLOUDY    47  41  80 NE9G20    29.88F
$$

NYZ005>009-017-018-044>046-055-056-010700-
CENTRAL


CITY           SKY/WX    TMP DP  RH WIND       PRES   REMARKS
FULTON         CLOUDY    42  34  73 NE8       29.97S
SYRACUSE       CLOUDY    43  35  73 N7        29.95F
ROME           MOCLDY    43  33  68 NE3       29.97S
ELMIRA         CLOUDY    41  36  82 E5        29.91S
BINGHAMTON     CLOUDY    41  32  70 NE6       29.88F
MONTICELLO     CLOUDY    43  37  81 E8        29.89S
$$

NYZ026>034-041>043-010700-
NORTH


CITY           SKY/WX    TMP DP  RH WIND       PRES   REMARKS
WATERTOWN      MOCLDY    39  30  70 NE14      30.02S WCI  31
FORT DRUM      NOT AVBL
MASSENA        CLOUDY    38  26  62 NE10      30.09F WCI  31
SARANAC LAKE   CLOUDY    32  25  75 NE5       29.98F WCI  27
PLATTSBURGH    PTCLDY    36  28  73 N9        30.05S WCI  29
$$

NYZ001>004-010>016-019>021-010700-
WEST


CITY           SKY/WX    TMP DP  RH WIND       PRES   REMARKS
NIAGARA FALLS  LGT RAIN  42  40  92 NE7       29.98S
BUFFALO        LGT RAIN  42  40  92 NE9       29.98R
DUNKIRK        CLOUDY    41  39  93 E5        29.96S
JAMESTOWN      CLOUDY    37  36  93 NE6       29.92S WCI  33
WELLSVILLE     LGT RAIN  37  35  92 N6        29.91S WCI  32
ROCHESTER      LGT RAIN  44  41  89 NE10      29.98S
PENN YAN       CLOUDY    42  37  82 N5        29.94S
$$

             KEY
       WCI = WIND CHILL INDEX
       VSB = VISIBILITY
       HX  = HEAT INDEX
$$



USA.gov is the U.S. government's official web portal to all federal, state and local government web resources and services.